Regional Weather Roundup
Issued by NWS

Home | Current Version | Previous Version | Graphics & Text | Print | Product List | Glossary On
Versions: 1 2 3 4 5 6 7 8 9 10 11 12 13 14 15 16 17 18 19 20 21 22 23 24 25 26 27 28 29 30 31 32 33 34 35 36 37 38 39 40 41 42 43 44 45 46 47 48 49 50
000
ASUS43 KDMX 022207
RWRIA

WEATHER ROUNDUP FOR IOWA
NATIONAL WEATHER SERVICE DES MOINES IA
500 PM CDT SAT MAY 02 2015

NOTE: "FAIR" INDICATES FEW OR NO CLOUDS BELOW 12,000 FEET WITH NO
SIGNIFICANT WEATHER AND/OR OBSTRUCTIONS TO VISIBILITY.

* - THESE STATIONS ARE NOT NWS STATIONS...THUS NOT UNDER NWS
QUALITY CONTROL.  THEY ALSO DO NOT REPORT WEATHER SUCH
AS PRECIPITATION OR FOG.

IAZ001>003-012>014-020>022-031>034-043>046-022300-
   NORTHWEST IOWA

CITY           SKY/WX    TMP DP  RH WIND       PRES   REMARKS
CARROLL *      MOSUNNY   70  55  60 S30G36    29.83S
CHEROKEE *     SUNNY     73  55  53 S20       29.80F
DENISON *      SUNNY     72  57  60 S21G29    29.81F
LE MARS *      SUNNY     75  54  46 S15G23    29.79F
ORANGE CITY *  SUNNY     73  54  49 SW16G26   29.79F
SHELDON *      MOSUNNY   77  52  41 S20       29.77F
SIOUX CITY     SUNNY     78  54  43 S16G23    29.78F
SPENCER        SUNNY     78  52  40 S20       29.80F
STORM LAKE *   SUNNY     73  54  49 S24       29.82F
$$

IAZ055>058-069>071-079>083-090>094-022300-
   SOUTHWEST IOWA

CITY           SKY/WX    TMP DP  RH WIND       PRES   REMARKS
ATLANTIC *     SUNNY     68  55  64 S20G26    29.86S
AUDUBON *      SUNNY     68  57  68 S16G24    29.87F
CLARINDA *     SUNNY     68  55  64 SE14      29.89F
COUNCIL BLFS * SUNNY     72  57  60 S16G25    29.84S
CRESTON *      CLOUDY    61  55  82 SE14      29.92F
HARLAN  *      SUNNY     70  59  68 S22       29.87F
LAMONI         PTSUNNY   62  55  77 SE10      29.92F
RED OAK *      SUNNY     70  55  60 S21G32    29.85F
SHENANDOAH *   SUNNY     70  57  64 S17G24    29.86F
$$

IAZ047>049-059>061-072>074-084-022300-
   CENTRAL IOWA

CITY           SKY/WX    TMP DP  RH WIND       PRES   REMARKS
AMES           MOSUNNY   70  54  56 S20G28    29.88F
ANKENY *       MOSUNNY   64  55  72 S13       29.88F
CHARITON *     CLOUDY    57  57 100 S12       29.95F
DES MOINES     LGT RAIN  63  54  72 S18       29.89F
GRINNELL*      PTSUNNY   68  54  60 S12       29.93F
KNOXVILLE *    LGT RAIN  59  55  88 SW20G28   29.91R
MARSHALLTOWN   MOSUNNY   70  53  54 S17       29.89F
PELLA *        LGT RAIN  61  57  88 E3        29.93R
PERRY *        CLOUDY    70  52  52 S28       29.86S
$$

IAZ004>006-015-016-023>025-035-036-022300-
   NORTH CENTRAL IOWA

CITY           SKY/WX    TMP DP  RH WIND       PRES   REMARKS
ALGONA *       SUNNY     77  48  36 S21       29.82F
CLARION *      SUNNY     75  50  41 SW16G24   29.85F
ESTHERVILLE    SUNNY     77  49  37 SW21G30   29.80S
FORT DODGE *   SUNNY     73  52  46 S21G26    29.85F
MASON CITY     MOSUNNY   77  51  40 SW18G25   29.85F
FOREST CITY *  SUNNY     73  46  38 S20       29.83S
IOWA FALLS *     N/A     72  52  49 S18G25    29.89F
$$

IAZ007>011-017>019-026>030-037>042-050>054-066-022300-
   NORTHEAST IOWA

CITY           SKY/WX    TMP DP  RH WIND       PRES   REMARKS
CEDAR RAPIDS   CLOUDY    73  50  44 SW16G24   29.94F
CHARLES CITY * MOSUNNY   73  50  43 S15G28    29.87S
CLINTON *        N/A     77  43  29 SW16G25   29.96F
DECORAH *      MOSUNNY   75  48  38 SW13G23   29.86F
DUBUQUE        MOSUNNY   74  41  30 SW20G30   29.92F
MONTICELLO *   SUNNY     73  50  43 SW17      29.92F
OELWEIN *      SUNNY     72  50  46 SW23      29.91S
WATERLOO       MOSUNNY   72  50  45 SW20G30   29.89F
$$

IAZ064-065-067-068-078-022300-
   EAST CENTRAL IOWA

CITY           SKY/WX    TMP DP  RH WIND       PRES   REMARKS
DAVENPORT      MOSUNNY   76  38  25 SW17      29.95F
IOWA CITY      CLOUDY    70  51  51 SW14G20   29.96F
MT. PLEASANT * CLOUDY    66  48  52 S8        29.97F
MUSCATINE *    MOSUNNY   72  50  46 W15G22    29.96S
QUAD CITIES    PTSUNNY   77  41  27 SW12      29.94F
$$

IAZ062-063-075>077-085>089-095>099-022300-
   SOUTHEAST IOWA

CITY           SKY/WX    TMP DP  RH WIND       PRES   REMARKS
BURLINGTON     CLOUDY    71  40  32 SW10      29.98F
FAIRFIELD *    MOSUNNY   63  55  77 SE12G17   29.95F
FORT MADISON * MOSUNNY   70  45  40 SW7       30.00F
KEOKUK *       MOSUNNY   70  50  49 SW10      29.98F
OSKALOOSA *    LGT RAIN  61  54  77 S15G28    29.92F
CENTERVILLE *  LGT RAIN  57  57 100 SE7       29.98F
OTTUMWA        LGT RAIN  60  56  86 S26       29.91F
WASHINGTON *   SUNNY     68  55  64 S15       29.94F
$$

ABBREVIATIONS USED IN REMARKS
   TC - TEMPERATURES IN CELSIUS
  WCI - WIND CHILL INDEX
   HX - HEAT INDEX
  VSB - VISIBILITY
$$



USA.gov is the U.S. government's official web portal to all federal, state and local government web resources and services.